Starlink 32610

operational
NORAD ID: 61971 Int'l Des: 2024-210 Owner: SPXS Country: US Constellation: starlink
LEOCIRCULAR

About Starlink 32610

Description loading...

Live Position

Loading 3D Globe...

Upcoming Passes

Altitude History

Altitude vs Time

uPlot chart will show altitude changes over time

Two-Line Element Set

1 61971U 24210N 25303.74256523 .00047622 00000-0 17272-2 0 9992
2 61971 43.0008 193.9217 0003491 294.0235 66.0251 15.27608021 55041
Epoch: Oct 30, 2025 • Age: 14 hours

Current Status

Altitude 482.0 km
Velocity 7.63 km/s
Sub-Earth Point 18.17°N, 50.24°E
Launch Date Nov 14, 2024
Age 0.9 years
Type internet

Technical Details

Classification Payload
Mass 730.00 kg
Dry Mass 700.00 kg
Total Mass 730.00 kg
Length 0.30 m
Diameter 4.10 m
Span 29.00 m
Shape Box + pan
Manufacturer SPXS
Bus Type Starlink V2M
Phase Status In Orbit
Owner/State SPXS/US

Large Constellations

Loading constellations...